Location: Roswell
(33.3943°N, 104.5230°W)
Time: 13:02:04
(UTC+00:00)

Vanguard 2 Rocket - Pass Details

Date: 20 November 2024
Orbit: 554 x 3296 km, 32.9° (Epoch: 30 November)

Event Time Altitude Azimuth Distance (km) Brightness Sun altitude
Exits shadow 10:33:31 28° 182° (S) 2,551 9.0 -37.6°
Maximum altitude 10:37:27 38° 140° (SE) 2,520 9.2 -36.8°
Drops below altitude 10° 10:50:10 10° 80° (E) 5,327 11.6 -34.1°
Sets 10:55:33 0° 74° (ENE) 6,718 12.3 -33.0°
